Location: Prairie State College
(41.5244°N, 87.6382°W)
Time: 03:13:07
(UTC-05:00)

Cosmos 1140 Rocket - Visible Passes

Search period start: 21 August 2014 00:00
Search period end: 31 August 2014 00:00
Orbit: 747 x 768 km, 74.1° (Epoch: 20 August)

Date Brightness Start Highest point End Pass type
(mag) Time Alt. Az. Time Alt. Az. Time Alt. Az.
21 Aug 5.4 01:08:18 26° NNE 01:08:18 26° NNE 01:10:30 10° NNE visible
21 Aug 5.6 02:48:20 16° NW 02:48:20 16° NW 02:50:51 10° NNW visible
22 Aug 5.8 00:28:49 17° NE 00:28:49 17° NE 00:30:03 10° NE visible
22 Aug 5.4 02:08:51 23° NNW 02:08:51 23° NNW 02:11:33 10° N visible
23 Aug 5.4 01:29:21 26° N 01:29:21 26° N 01:31:48 10° N visible
24 Aug 5.5 00:49:50 23° NNE 00:49:50 23° NNE 00:51:46 10° NNE visible
24 Aug 6.0 02:29:52 12° NW 02:29:52 12° NW 02:31:11 10° NNW visible
25 Aug 5.8 00:10:18 17° NNE 00:10:18 17° NNE 00:11:29 10° NNE visible
25 Aug 5.8 01:50:20 18° NNW 01:50:20 18° NNW 01:52:26 10° N visible
25 Aug 6.1 23:30:44 11° NE 23:30:44 11° NE 23:30:51 10° NE visible
26 Aug 5.6 01:10:46 22° NNW 01:10:46 22° NNW 01:12:53 10° N visible
27 Aug 5.7 00:31:11 22° N 00:31:11 22° N 00:32:59 10° NNE visible
27 Aug 5.8 23:51:35 18° NNE 23:51:35 18° NNE 23:52:50 10° NNE visible
28 Aug 6.0 01:31:37 14° NW 01:31:37 14° NW 01:33:08 10° NNW visible
28 Aug 6.0 23:11:58 12° NE 23:11:58 12° NE 23:12:23 10° NE visible
29 Aug 5.9 00:51:59 19° NNW 00:51:59 19° NNW 00:53:52 10° N visible
30 Aug 5.7 00:12:20 21° N 00:12:20 21° N 00:14:07 10° N visible
30 Aug 5.7 23:32:40 19° NNE 23:32:40 19° NNE 23:34:06 10° NNE visible
